EN

Hourly Weather La Esperanza

Today, 30 July, Friday

Time Temperature Precipitation Wind Pressure Humidity
00:00 +15°C° 0 mm 1 mps 618 mmHg 94%
01:00 +15°C° 0 mm 1 mps 617 mmHg 95%
02:00 +14°C° 0 mm 1 mps 617 mmHg 95%
03:00 +14°C° 0 mm 2 mps 617 mmHg 96%
04:00 +14°C° 0 mm 2 mps 617 mmHg 96%
05:00 +14°C° 0 mm 2 mps 617 mmHg 96%
06:00 +15°C° 0 mm 2 mps 617 mmHg 96%
07:00 +16°C° 0 mm 2 mps 618 mmHg 91%
08:00 +17°C° 0 mm 2 mps 619 mmHg 85%
09:00 +18°C° 0 mm 2 mps 619 mmHg 80%
10:00 +20°C° 0 mm 2 mps 620 mmHg 70%
11:00 +23°C° 0 mm 2 mps 620 mmHg 60%
12:00 +25°C° 0 mm 2 mps 621 mmHg 50%
13:00 +25°C° 0 mm 2 mps 620 mmHg 52%
14:00 +24°C° 0 mm 2 mps 619 mmHg 55%
15:00 +24°C° 0 mm 2 mps 619 mmHg 58%
16:00 +21°C° 0.2 mm 2 mps 619 mmHg 66%
17:00 +20°C° 0.2 mm 1 mps 618 mmHg 75%
18:00 +19°C° 0.2 mm 1 mps 618 mmHg 84%
19:00 +18°C° 0.1 mm 1 mps 618 mmHg 86%
20:00 +16°C° 0.1 mm 1 mps 618 mmHg 89%
21:00 +15°C° 0.1 mm 1 mps 619 mmHg 92%
22:00 +15°C° 0 mm 1 mps 618 mmHg 92%
23:00 +15°C° 0 mm 1 mps 618 mmHg 93%

Tomorrow, 31 July, Saturday

Time Temperature Precipitation Wind Pressure Humidity
00:00 +14°C° 0 mm 1 mps 618 mmHg 94%
01:00 +14°C° 0 mm 1 mps 618 mmHg 94%
02:00 +14°C° 0 mm 1 mps 618 mmHg 95%
03:00 +14°C° 0 mm 2 mps 617 mmHg 95%
04:00 +14°C° 0 mm 2 mps 617 mmHg 95%
05:00 +14°C° 0 mm 2 mps 618 mmHg 95%
06:00 +14°C° 0 mm 2 mps 618 mmHg 96%
07:00 +16°C° 0 mm 2 mps 618 mmHg 89%
08:00 +17°C° 0 mm 2 mps 619 mmHg 83%
09:00 +20°C° 0 mm 1 mps 620 mmHg 77%
10:00 +20°C° 0 mm 2 mps 620 mmHg 69%
11:00 +23°C° 0 mm 2 mps 621 mmHg 60%
12:00 +25°C° 0 mm 2 mps 621 mmHg 52%
13:00 +24°C° 0.2 mm 2 mps 620 mmHg 56%
14:00 +24°C° 0.2 mm 2 mps 620 mmHg 60%
15:00 +23°C° 0.2 mm 2 mps 619 mmHg 65%
16:00 +20°C° 0.9 mm 2 mps 619 mmHg 74%
17:00 +19°C° 0.9 mm 2 mps 618 mmHg 83%
18:00 +17°C° 0.9 mm 2 mps 618 mmHg 93%
19:00 +16°C° 2.3 mm 2 mps 618 mmHg 94%
20:00 +16°C° 2.3 mm 2 mps 619 mmHg 96%
21:00 +16°C° 2.3 mm 2 mps 619 mmHg 97%
22:00 +15°C° 0.5 mm 2 mps 619 mmHg 97%
23:00 +15°C° 0.5 mm 1 mps 619 mmHg 96%

Day after tomorrow, 1 August, Sunday

Time Temperature Precipitation Wind Pressure Humidity
00:00 +15°C° 0.5 mm 1 mps 618 mmHg 96%
01:00 +14°C° 0 mm 1 mps 618 mmHg 96%
02:00 +14°C° 0 mm 1 mps 618 mmHg 95%
03:00 +14°C° 0 mm 1 mps 617 mmHg 95%
04:00 +14°C° 0 mm 1 mps 618 mmHg 94%
05:00 +14°C° 0 mm 1 mps 618 mmHg 94%
06:00 +14°C° 0 mm 1 mps 618 mmHg 93%
07:00 +16°C° 0 mm 1 mps 619 mmHg 85%
08:00 +19°C° 0 mm 1 mps 620 mmHg 77%
09:00 +21°C° 0 mm 1 mps 621 mmHg 68%
10:00 +23°C° 0 mm 2 mps 621 mmHg 59%
11:00 +24°C° 0 mm 2 mps 621 mmHg 49%
12:00 +26°C° 0 mm 2 mps 622 mmHg 39%
13:00 +26°C° 0 mm 2 mps 621 mmHg 40%
14:00 +26°C° 0 mm 2 mps 621 mmHg 41%
15:00 +26°C° 0 mm 2 mps 621 mmHg 41%
16:00 +24°C° 0 mm 2 mps 620 mmHg 52%
17:00 +22°C° 0 mm 1 mps 620 mmHg 63%
18:00 +20°C° 0 mm 1 mps 619 mmHg 74%
19:00 +19°C° 0 mm 1 mps 619 mmHg 78%
20:00 +18°C° 0 mm 1 mps 619 mmHg 82%
21:00 +16°C° 0 mm 1 mps 619 mmHg 87%
22:00 +16°C° 0 mm 1 mps 619 mmHg 89%
23:00 +15°C° 0 mm 1 mps 619 mmHg 91%

2 August, Monday

Time Temperature Precipitation Wind Pressure Humidity
00:00 +15°C° 0 mm 1 mps 619 mmHg 94%
01:00 +15°C° 0 mm 1 mps 618 mmHg 94%
02:00 +15°C° 0 mm 1 mps 618 mmHg 94%
03:00 +14°C° 0 mm 1 mps 618 mmHg 94%
04:00 +14°C° 0 mm 1 mps 618 mmHg 94%
05:00 +14°C° 0 mm 1 mps 618 mmHg 95%
06:00 +14°C° 0 mm 1 mps 618 mmHg 95%
07:00 +16°C° 0 mm 1 mps 619 mmHg 84%
08:00 +20°C° 0 mm 1 mps 620 mmHg 73%
09:00 +22°C° 0 mm 1 mps 621 mmHg 62%
10:00 +24°C° 0 mm 1 mps 621 mmHg 56%
11:00 +25°C° 0 mm 2 mps 621 mmHg 50%
12:00 +26°C° 0 mm 2 mps 621 mmHg 43%
13:00 +25°C° 0 mm 2 mps 621 mmHg 47%
14:00 +25°C° 0 mm 2 mps 620 mmHg 51%
15:00 +24°C° 0 mm 2 mps 619 mmHg 55%
16:00 +23°C° 0.1 mm 1 mps 619 mmHg 64%
17:00 +21°C° 0.1 mm 1 mps 619 mmHg 72%
18:00 +19°C° 0.1 mm 1 mps 618 mmHg 80%
19:00 +19°C° 0.1 mm 1 mps 618 mmHg 84%
20:00 +18°C° 0.1 mm 1 mps 618 mmHg 87%
21:00 +16°C° 0.1 mm 1 mps 619 mmHg 90%
22:00 +15°C° 0 mm 1 mps 618 mmHg 91%
23:00 +15°C° 0 mm 1 mps 618 mmHg 92%

3 August, Tuesday

Time Temperature Precipitation Wind Pressure Humidity
00:00 +15°C° 0 mm 1 mps 618 mmHg 93%
01:00 +15°C° 0 mm 1 mps 618 mmHg 93%
02:00 +14°C° 0 mm 1 mps 617 mmHg 93%
03:00 +14°C° 0 mm 1 mps 617 mmHg 93%
04:00 +14°C° 0 mm 1 mps 617 mmHg 93%
05:00 +14°C° 0 mm 1 mps 617 mmHg 93%
06:00 +14°C° 0 mm 1 mps 617 mmHg 93%
07:00 +18°C° 0 mm 1 mps 618 mmHg 82%
08:00 +20°C° 0 mm 1 mps 619 mmHg 72%
09:00 +23°C° 0 mm 1 mps 620 mmHg 61%
10:00 +23°C° 0.2 mm 1 mps 620 mmHg 60%
11:00 +24°C° 0.2 mm 1 mps 620 mmHg 58%
12:00 +25°C° 0.2 mm 1 mps 620 mmHg 56%
13:00 +24°C° 1.4 mm 1 mps 620 mmHg 64%
14:00 +23°C° 1.4 mm 1 mps 619 mmHg 72%
15:00 +19°C° 1.4 mm 0 mps 618 mmHg 79%
16:00 +20°C° 1.3 mm 1 mps 618 mmHg 83%
17:00 +19°C° 1.3 mm 1 mps 618 mmHg 87%
18:00 +18°C° 1.3 mm 1 mps 617 mmHg 90%
19:00 +18°C° 0.7 mm 1 mps 618 mmHg 91%
20:00 +16°C° 0.7 mm 1 mps 618 mmHg 93%
21:00 +15°C° 0.7 mm 1 mps 618 mmHg 94%
22:00 +15°C° 1 mm 1 mps 618 mmHg 95%
23:00 +15°C° 1 mm 1 mps 618 mmHg 95%

4 August, Wednesday

Time Temperature Precipitation Wind Pressure Humidity
00:00 +15°C° 1 mm 1 mps 618 mmHg 96%
01:00 +15°C° 0.6 mm 1 mps 617 mmHg 96%
02:00 +15°C° 0.6 mm 1 mps 617 mmHg 96%
03:00 +15°C° 0.6 mm 1 mps 617 mmHg 95%
04:00 +15°C° 0.1 mm 1 mps 617 mmHg 95%
05:00 +14°C° 0.1 mm 1 mps 617 mmHg 95%
06:00 +14°C° 0.1 mm 1 mps 617 mmHg 95%
07:00 +15°C° 0.2 mm 1 mps 618 mmHg 93%
08:00 +16°C° 0.2 mm 1 mps 619 mmHg 92%
09:00 +18°C° 0.2 mm 1 mps 619 mmHg 90%
10:00 +20°C° 0.2 mm 1 mps 620 mmHg 82%
11:00 +21°C° 0.2 mm 1 mps 620 mmHg 73%
12:00 +23°C° 0.2 mm 1 mps 620 mmHg 65%
13:00 +22°C° 0.6 mm 1 mps 620 mmHg 68%
14:00 +22°C° 0.6 mm 1 mps 619 mmHg 72%
15:00 +22°C° 0.6 mm 1 mps 619 mmHg 76%
16:00 +20°C° 0.8 mm 1 mps 618 mmHg 81%
17:00 +19°C° 0.8 mm 1 mps 618 mmHg 87%
18:00 +18°C° 0.8 mm 1 mps 618 mmHg 93%
19:00 +16°C° 0.7 mm 1 mps 618 mmHg 93%
20:00 +16°C° 0.7 mm 1 mps 618 mmHg 93%
21:00 +15°C° 0.7 mm 1 mps 619 mmHg 93%
22:00 +15°C° 0.5 mm 1 mps 619 mmHg 94%
23:00 +15°C° 0.5 mm 1 mps 619 mmHg 94%
Show more